This demonstration page uses our WeatherBlox Daily Observations layout. Learn more.

Left ArrowRight Arrow

38.83388, -104.82136

Hourly Observations for January 8, 2017

Temp ( °F °C ) Dew Point ( °F °C ) Humidity (%) Winds ( mph kmh ) Pressure ( in mb ) Visibility ( mi km ) Precip ( " mm )
12:58 am 00:58 Clear 24 -4.6 10 -12 57 57 SSW 3 6 29.87 1012 10 16 0.00 0.00
1:58 am 01:58 Clear 33 0.7 19 -7.5 55 55 W 7 11 29.84 1011 10 16 0.00 0.00
2:58 am 02:58 Clear 33 0.5 19 -7.3 56 56 WNW 7 11 29.87 1011 10 16 0.00 0.00
3:56 am 03:56 Clear 38 3.1 19 -7.5 46 46 SW 8 13 29.87 1011 10 16 0.00 0.00
4:56 am 04:56 Clear 38 3.1 18 -7.6 46 46 SSW 9 15 29.86 1011 10 16 0.00 0.00
5:56 am 05:56 Clear 38 3.6 19 -7.4 45 45 S 10 17 29.87 1011 10 16 0.00 0.00
6:56 am 06:56 Clear 37 2.6 20 -6.5 52 52 SSW 3 6 29.90 1013 10 16 0.00 0.00
7:58 am 07:58 Sunny 40 4.5 20 -6.5 45 45 SSE 9 15 29.88 1012 10 16 0.00 0.00
8:58 am 08:58 Sunny 44 6.5 19 -7 38 38 SSW 14 22 29.88 1012 10 16 0.00 0.00
9:03 am 09:03 Sunny 45 7 19 -7 37 37 S 14 22 29.94 1014 10 16 0.00 0.00
9:12 am 09:12 Sunny 43 6 19 -7 39 39 SSW 15 24 29.97 1015 10 16 0.00 0.00
9:28 am 09:28 Sunny 45 7 21 -6 39 39 SSE 13 20 29.94 1014 10 16 0.00 0.00
9:58 am 09:58 Sunny 46 7.5 20 -6.5 37 37 S 7 11 29.91 1013 10 16 0.00 0.00
10:58 am 10:58 Mostly Sunny 46 7.7 20 -6.9 35 35 S 7 11 29.93 1013 10 16 0.00 0.00
11:58 am 11:58 Mostly Cloudy 46 7.5 22 -5.4 40 40 ENE 5 7 29.88 1012 10 16 0.00 0.00
12:58 pm 12:58 Mostly Sunny 47 8.1 22 -5.3 39 39 E 3 6 29.84 1010 10 16 0.00 0.00
1:58 pm 13:58 Mostly Cloudy 47 8.4 20 -6.6 34 34 SSE 7 11 29.77 1008 10 16 0.00 0.00
2:58 pm 14:58 Mostly Cloudy 43 6.3 25 -3.7 49 49 Calm 29.83 1010 10 16 0.00 0.00
3:58 pm 15:58 Mostly Cloudy 37 3 26 -3.4 63 63 Calm 30.03 1017 10 16 0.00 0.00
4:58 pm 16:58 Partly Cloudy 39 3.9 25 -3.7 58 58 Calm 30.00 1016 10 16 0.00 0.00
6:58 pm 18:58 Mostly Cloudy 40 4.2 24 -4.4 54 54 Calm 30.00 1016 10 16 0.00 0.00
7:58 pm 19:58 Mostly Clear 39 4.1 25 -4 56 56 SSE 10 17 29.79 1009 10 16 0.00 0.00
8:58 pm 20:58 Partly Cloudy 38 3.1 24 -4.2 59 59 Calm 29.78 1009 10 16 0.00 0.00
9:58 pm 21:58 Mostly Clear 36 2.4 25 -4 63 63 Calm 29.75 1008 10 16 0.00 0.00
10:58 pm 22:58 Mostly Cloudy 36 2.3 25 -3.9 64 64 S 7 11 29.72 1006 10 16 0.00 0.00
11:24 pm 23:24 Mostly Cloudy 45 7 28 -2 53 53 SSW 15 24 29.85 1011 10 16 0.00 0.00
11:58 pm 23:58 Clear 38 3.6 27 -2.7 64 64 ESE 5 7 29.66 1004 10 16 0.00 0.00

Powered by AerisWeather